period_start,C,m1,H,J0,J1,J2,J3,J4,J5,JA,JB,JC,JD,JJ,JK,JN,#
2016-03-29 00:00:54,0.17,9.85,0.00,11.49,16.64,20.93,15.32,49.93,1025.39,2071.92,1256.56,1562.65,1744.71,599.69,625.34,52.75,0000 0000 0000 0000 000000
2016-03-29 00:05:55,0.16,9.86,0.00,11.52,16.67,20.91,15.37,50.06,1025.39,2071.59,1255.36,1561.70,1743.69,599.81,625.22,52.80,0000 0000 0000 0000 000000
2016-03-29 00:10:56,0.14,9.87,0.00,11.61,16.69,21.00,15.42,50.00,1025.39,2071.23,1254.26,1560.78,1742.60,599.97,625.17,52.85,0000 0000 0000 0000 000000
2016-03-29 00:15:58,0.14,9.87,0.00,11.65,16.71,21.02,15.36,49.91,1025.37,2071.05,1253.48,1559.95,1741.66,600.10,625.29,52.90,0000 0000 0000 0000 000000
2016-03-29 00:20:59,0.27,9.89,0.00,11.65,16.74,21.09,15.34,50.08,1025.30,2071.02,1251.86,1558.92,1740.63,599.91,624.97,52.95,0000 0000 0000 0000 000000
2016-03-29 00:26:00,0.17,9.90,0.00,11.66,16.77,21.08,15.40,50.02,1025.30,2071.01,1250.75,1558.05,1739.56,599.90,624.87,53.00,0000 0000 0000 0000 000000
2016-03-29 00:31:02,0.17,9.91,0.00,11.65,16.81,21.01,15.35,50.07,1025.15,2071.00,1249.94,1557.26,1738.64,600.18,625.08,53.05,0000 0000 0000 0000 000000
2016-03-29 00:36:03,0.25,9.92,0.00,11.70,16.85,20.99,15.32,50.03,1025.15,2071.00,1248.72,1556.35,1737.55,599.90,624.76,53.10,0000 0000 0000 0000 000000
2016-03-29 00:41:05,0.22,9.93,0.00,11.75,16.88,21.04,15.36,50.12,1025.26,2070.97,1247.44,1555.26,1736.41,600.04,624.91,53.15,0000 0000 0000 0000 000000
2016-03-29 00:46:06,0.21,9.94,0.00,11.82,16.90,21.07,15.38,50.04,1025.37,2070.96,1246.23,1554.33,1735.34,600.12,624.77,53.20,0000 0000 0000 0000 000000
2016-03-29 00:51:07,0.18,9.95,0.00,11.76,16.93,21.13,15.34,50.08,1025.39,2070.78,1245.00,1553.26,1734.12,600.01,624.89,53.25,0000 0000 0000 0000 000000
2016-03-29 00:56:09,0.15,9.96,0.00,11.74,16.97,21.17,15.44,50.09,1025.40,2070.38,1243.89,1552.20,1732.91,599.90,624.79,53.30,0000 0000 0000 0000 000000
2016-03-29 01:01:10,0.23,9.97,0.00,11.79,17.00,21.09,15.35,50.01,1025.40,2070.09,1242.64,1551.17,1731.73,600.27,625.09,53.35,0000 0000 0000 0000 000000
2016-03-29 01:06:12,0.24,9.98,0.00,11.85,17.03,21.15,15.40,50.20,1025.40,2070.01,1241.18,1550.02,1730.47,600.07,624.79,53.40,0000 0000 0000 0000 000000
2016-03-29 01:11:13,0.23,10.00,0.00,11.86,17.07,21.17,15.43,50.27,1025.40,2070.01,1239.90,1548.91,1729.20,600.24,624.88,53.45,0000 0000 0000 0000 000000
2016-03-29 01:16:15,0.26,10.01,0.00,11.88,17.10,21.26,15.36,50.13,1025.40,2070.00,1238.44,1547.82,1728.00,599.79,624.36,53.50,0000 0000 0000 0000 000000
2016-03-29 01:21:16,0.25,10.02,0.00,11.92,17.14,21.25,15.37,50.33,1025.40,2069.98,1237.19,1546.68,1726.89,600.05,624.73,53.55,0000 0000 0000 0000 000000
2016-03-29 01:26:17,0.20,10.03,0.00,11.97,17.18,21.27,15.34,50.20,1025.40,2069.96,1235.97,1545.67,1725.77,600.02,624.46,53.60,0000 0000 0000 0000 000000
2016-03-29 01:31:18,0.14,10.04,0.00,11.96,17.23,21.33,15.39,50.14,1025.39,2069.52,1234.89,1544.63,1724.60,600.13,624.58,53.66,0000 0000 0000 0000 000000
2016-03-29 01:36:20,0.21,10.05,0.00,11.96,17.27,21.34,15.39,50.34,1025.40,2069.09,1233.63,1543.61,1723.47,600.54,624.99,53.71,0000 0000 0000 0000 000000
2016-03-29 01:41:21,0.21,10.06,0.00,12.04,17.31,21.41,15.34,50.24,1025.38,2069.01,1232.45,1542.62,1722.37,599.92,624.19,53.76,0000 0000 0000 0000 000000
2016-03-29 01:46:23,0.19,10.07,0.00,12.09,17.35,21.43,15.37,50.17,1025.38,2069.00,1231.57,1541.68,1721.29,600.33,624.51,53.81,0000 0000 0000 0000 000000
2016-03-29 01:51:24,0.19,10.08,0.00,12.12,17.38,21.50,15.36,50.20,1025.39,2068.98,1230.47,1540.81,1720.22,600.06,624.15,53.86,0000 0000 0000 0000 000000
2016-03-29 01:56:25,0.18,10.09,0.00,12.13,17.42,21.54,15.42,50.14,1025.40,2068.95,1229.32,1539.93,1719.23,600.39,624.45,53.91,0000 0000 0000 0000 000000
2016-03-29 02:01:27,0.16,10.10,0.00,12.14,17.45,21.53,15.37,50.19,1025.40,2068.72,1228.18,1539.03,1718.21,599.93,623.93,53.96,0000 0000 0000 0000 000000
2016-03-29 02:06:28,0.14,10.11,0.00,12.20,17.48,21.56,15.38,50.24,1025.39,2068.32,1227.04,1538.11,1717.21,600.20,624.13,54.01,0000 0000 0000 0000 000000
2016-03-29 02:11:29,0.21,10.12,0.00,12.20,17.51,21.60,15.36,50.23,1025.39,2068.03,1225.85,1537.14,1716.09,599.98,624.06,54.06,0000 0000 0000 0000 000000
2016-03-29 02:16:31,0.25,10.13,0.00,12.20,17.54,21.61,15.43,50.18,1025.39,2068.01,1224.54,1536.14,1714.93,600.26,624.17,54.11,0000 0000 0000 0000 000000
2016-03-29 02:21:32,0.23,10.14,0.00,12.24,17.57,21.64,15.33,50.29,1025.32,2068.00,1223.20,1535.14,1713.68,599.70,623.55,54.16,0000 0000 0000 0000 000000
2016-03-29 02:26:33,0.25,10.15,0.00,12.31,17.59,21.68,15.40,50.18,1025.35,2068.00,1221.81,1534.20,1712.50,600.43,624.06,54.21,0000 0000 0000 0000 000000
2016-03-29 02:31:35,0.24,10.17,0.00,12.33,17.62,21.68,15.37,50.09,1025.40,2067.98,1220.45,1533.11,1711.31,599.98,623.65,54.26,0000 0000 0000 0000 000000
2016-03-29 02:36:36,0.27,10.18,0.00,12.36,17.65,21.75,15.44,50.21,1025.40,2067.98,1218.89,1532.02,1709.99,600.00,623.57,54.31,0000 0000 0000 0000 000000
2016-03-29 02:41:37,0.22,10.19,0.00,12.42,17.68,21.86,15.32,50.16,1025.40,2067.90,1217.67,1530.95,1708.81,599.89,623.41,54.36,0000 0000 0000 0000 000000
2016-03-29 02:46:38,0.17,10.20,0.00,12.47,17.70,21.90,15.38,50.25,1025.40,2067.48,1216.47,1529.89,1707.66,599.97,623.32,54.41,0000 0000 0000 0000 000000
2016-03-29 02:51:39,0.22,10.21,0.00,12.49,17.73,21.92,15.36,50.23,1025.40,2067.13,1215.01,1528.83,1706.46,600.07,623.34,54.46,0000 0000 0000 0000 000000
2016-03-29 02:56:40,0.24,10.22,0.00,12.49,17.75,21.93,15.33,50.23,1025.40,2067.03,1213.70,1527.76,1705.28,599.66,622.95,54.52,0000 0000 0000 0000 000000
2016-03-29 03:01:42,0.25,10.24,0.00,12.56,17.78,21.94,15.36,50.13,1025.40,2067.01,1212.41,1526.62,1703.99,599.82,623.03,54.57,0000 0000 0000 0000 000000
2016-03-29 03:06:43,0.24,10.25,0.00,12.59,17.82,21.95,15.35,50.21,1025.40,2067.00,1211.15,1525.54,1702.75,599.99,623.05,54.62,0000 0000 0000 0000 000000
2016-03-29 03:11:44,0.25,10.26,0.00,12.61,17.85,21.98,15.37,50.24,1025.40,2067.00,1209.90,1524.47,1701.55,600.52,623.53,54.67,0000 0000 0000 0000 000000
2016-03-29 03:16:45,0.25,10.27,0.00,12.65,17.88,22.00,15.33,50.30,1025.40,2066.99,1208.56,1523.44,1700.37,599.73,622.70,54.72,0000 0000 0000 0000 000000
2016-03-29 03:21:46,0.23,10.29,0.00,12.69,17.92,22.05,15.40,50.15,1025.40,2066.97,1207.20,1522.27,1699.06,600.24,622.93,54.77,0000 0000 0000 0000 000000
2016-03-29 03:26:48,0.28,10.30,0.00,12.73,17.96,22.17,15.38,50.29,1025.40,2066.92,1205.71,1521.14,1697.79,599.99,622.64,54.82,0000 0000 0000 0000 000000
2016-03-29 03:31:49,0.17,10.31,0.00,12.75,18.00,22.15,15.29,50.35,1025.39,2066.52,1204.45,1520.08,1696.58,599.69,622.61,54.87,0000 0000 0000 0000 000000
2016-03-29 03:36:50,0.17,10.32,0.00,12.83,18.04,22.15,15.36,50.31,1025.31,2066.08,1203.32,1519.09,1695.48,600.23,622.75,54.92,0000 0000 0000 0000 000000
2016-03-29 03:41:51,0.22,10.33,0.00,12.88,18.08,22.24,15.32,50.17,1025.23,2066.01,1202.03,1518.00,1694.24,599.82,621.96,54.97,0000 0000 0000 0000 000000
2016-03-29 03:46:53,0.27,10.34,0.00,12.90,18.12,22.23,15.34,50.17,1025.06,2066.00,1200.76,1516.95,1693.03,599.88,622.15,55.02,0000 0000 0000 0000 000000
2016-03-29 03:51:54,0.27,10.36,0.00,12.92,18.16,22.22,15.34,50.27,1024.98,2066.00,1199.48,1515.86,1691.75,600.14,622.26,55.07,0000 0000 0000 0000 000000
2016-03-29 03:56:55,0.24,10.37,0.00,12.99,18.19,22.35,15.35,50.36,1024.94,2065.97,1198.05,1514.77,1690.60,600.19,622.08,55.12,0000 0000 0000 0000 000000
2016-03-29 04:01:56,0.26,10.38,0.00,13.06,18.23,22.37,15.34,50.22,1024.94,2065.86,1196.71,1513.71,1689.39,599.93,621.71,55.17,0000 0000 0000 0000 000000
2016-03-29 04:06:58,0.14,10.39,0.00,13.03,18.27,22.40,15.35,50.13,1024.93,2065.29,1195.37,1512.61,1688.17,600.08,621.92,55.22,0000 0000 0000 0000 000000
2016-03-29 04:11:59,0.22,10.40,0.00,13.07,18.31,22.43,15.41,50.27,1024.93,2065.12,1194.01,1511.59,1686.95,600.06,621.79,55.27,0000 0000 0000 0000 000000
2016-03-29 04:17:00,0.28,10.41,0.00,13.15,18.34,22.52,15.27,50.19,1024.92,2065.02,1192.71,1510.50,1685.74,600.03,621.60,55.32,0000 0000 0000 0000 000000
2016-03-29 04:22:02,0.24,10.43,0.00,13.15,18.38,22.53,15.39,50.39,1024.92,2065.00,1191.49,1509.42,1684.54,600.33,621.93,55.37,0000 0000 0000 0000 000000
2016-03-29 04:27:03,0.24,10.44,0.00,13.15,18.43,22.48,15.36,50.34,1024.92,2065.00,1190.08,1508.31,1683.35,600.29,621.90,55.42,0000 0000 0000 0000 000000
2016-03-29 04:32:04,0.19,10.45,0.00,13.21,18.46,22.54,15.30,50.26,1024.93,2064.98,1189.11,1507.45,1682.32,600.44,621.75,55.48,0000 0000 0000 0000 000000
2016-03-29 04:37:05,0.21,10.46,0.00,13.25,18.50,22.55,15.27,50.28,1024.93,2064.94,1188.02,1506.53,1681.29,599.75,621.16,55.53,0000 0000 0000 0000 000000
2016-03-29 04:42:07,0.14,10.47,0.00,13.21,18.53,22.62,15.30,50.46,1024.93,2064.64,1186.93,1505.66,1680.33,599.74,621.22,55.58,0000 0000 0000 0000 000000
2016-03-29 04:47:08,0.10,10.48,0.00,13.28,18.57,22.60,15.25,50.36,1024.92,2064.15,1185.99,1504.88,1679.40,599.97,621.32,55.63,0000 0000 0000 0000 000000
2016-03-29 04:52:10,0.18,10.49,0.00,13.34,18.60,22.59,15.28,50.30,1024.92,2064.02,1185.05,1504.06,1678.42,599.97,621.14,55.68,0000 0000 0000 0000 000000
2016-03-29 04:57:11,0.20,10.50,0.00,13.29,18.63,22.61,15.25,50.41,1024.92,2064.00,1184.12,1503.24,1677.56,599.53,620.79,55.73,0000 0000 0000 0000 000000
2016-03-29 05:02:12,0.19,10.51,0.00,13.30,18.67,22.61,15.23,50.37,1024.92,2063.99,1183.18,1502.41,1676.69,599.79,621.09,55.78,0000 0000 0000 0000 000000
2016-03-29 05:07:13,0.19,10.52,0.00,13.36,18.69,22.70,15.34,50.33,1024.92,2063.98,1182.18,1501.59,1675.75,599.90,621.00,55.83,0000 0000 0000 0000 000000
2016-03-29 05:12:15,0.17,10.53,0.00,13.41,18.73,22.73,15.26,50.37,1024.92,2063.96,1181.19,1500.81,1674.83,599.83,620.91,55.88,0000 0000 0000 0000 000000
2016-03-29 05:17:16,0.14,10.54,0.00,13.38,18.75,22.74,15.28,50.35,1024.92,2063.74,1180.17,1499.99,1673.90,599.81,620.95,55.93,0000 0000 0000 0000 000000
2016-03-29 05:22:18,0.15,10.54,0.00,13.39,18.78,22.74,15.37,50.39,1024.92,2063.29,1179.12,1499.12,1672.97,600.22,621.26,55.98,0000 0000 0000 0000 000000
2016-03-29 05:27:19,0.20,10.55,0.00,13.45,18.81,22.79,15.38,50.34,1024.92,2063.13,1178.02,1498.29,1672.03,600.51,621.51,56.03,0000 0000 0000 0000 000000
2016-03-29 05:32:20,0.20,10.56,0.00,13.44,18.83,22.84,15.43,50.30,1024.92,2063.02,1176.98,1497.44,1671.06,600.80,621.77,56.08,0000 0000 0000 0000 000000
2016-03-29 05:37:22,0.21,10.57,0.00,13.41,18.86,22.82,15.37,50.35,1024.91,2063.00,1175.94,1496.58,1670.06,600.37,621.40,56.13,0000 0000 0000 0000 000000
2016-03-29 05:42:23,0.19,10.58,0.00,13.45,18.88,22.83,15.33,50.38,1024.91,2063.00,1174.89,1495.80,1669.06,600.34,621.23,56.18,0000 0000 0000 0000 000000
2016-03-29 05:47:24,0.20,10.59,0.00,13.55,18.91,22.85,15.33,50.44,1024.90,2062.99,1173.83,1494.92,1668.12,600.25,620.93,56.23,0000 0000 0000 0000 000000
2016-03-29 05:52:26,0.20,10.60,0.00,13.57,18.94,22.89,15.30,50.47,1024.91,2062.97,1172.82,1494.02,1667.17,599.91,620.47,56.28,0000 0000 0000 0000 000000
2016-03-29 05:57:27,0.23,10.61,0.00,13.54,18.97,22.89,15.30,50.47,1024.92,2062.96,1171.75,1493.11,1666.19,600.15,621.01,56.33,0000 0000 0000 0000 000000
2016-03-29 06:02:28,0.19,10.62,0.00,13.59,19.00,22.93,15.32,50.52,1024.89,2062.81,1170.68,1492.18,1665.14,600.50,621.05,56.39,0000 0000 0000 0000 000000
2016-03-29 06:07:30,0.14,10.63,0.00,13.68,19.03,22.97,15.19,50.38,1024.86,2062.22,1169.52,1491.28,1664.13,599.87,620.25,56.44,0000 0000 0000 0000 000000
2016-03-29 06:12:31,0.21,10.64,0.00,13.69,19.06,23.03,15.31,50.38,1024.85,2062.05,1168.46,1490.33,1663.13,600.14,620.63,56.49,0000 0000 0000 0000 000000
2016-03-29 06:17:32,0.22,10.65,0.00,13.66,19.09,22.97,15.28,50.40,1024.84,2062.03,1167.22,1489.37,1662.05,600.02,620.47,56.54,0000 0000 0000 0000 000000
2016-03-29 06:22:34,0.25,10.67,0.00,13.72,19.11,23.02,15.28,50.42,1024.82,2062.00,1165.97,1488.30,1660.86,600.01,620.33,56.59,0000 0000 0000 0000 000000
2016-03-29 06:27:35,0.25,10.68,0.00,13.76,19.14,23.05,15.23,50.38,1024.72,2062.00,1164.76,1487.33,1659.71,599.76,619.85,56.64,0000 0000 0000 0000 000000
2016-03-29 06:32:36,0.25,10.69,0.00,13.74,19.17,23.06,15.30,50.50,1024.62,2061.98,1163.53,1486.21,1658.56,599.97,620.19,56.69,0000 0000 0000 0000 000000
2016-03-29 06:37:37,0.23,10.70,0.00,13.75,19.19,23.08,15.26,50.42,1024.73,2061.98,1162.31,1485.26,1657.52,599.82,619.87,56.74,0000 0000 0000 0000 000000
2016-03-29 06:42:39,0.20,10.71,0.00,13.83,19.22,23.14,15.31,50.42,1024.83,2061.93,1161.33,1484.37,1656.56,599.91,619.83,56.79,0000 0000 0000 0000 000000
2016-03-29 06:47:40,0.18,10.72,0.00,13.82,19.24,23.17,15.23,50.33,1024.86,2061.70,1160.21,1483.44,1655.49,600.00,620.10,56.84,0000 0000 0000 0000 000000
2016-03-29 06:52:42,0.19,10.73,0.00,13.81,19.26,23.13,15.28,50.34,1024.90,2061.34,1158.99,1482.48,1654.37,600.49,620.64,56.89,0000 0000 0000 0000 000000
2016-03-29 06:57:43,0.21,10.74,0.00,13.85,19.28,23.23,15.26,50.40,1024.90,2061.18,1157.81,1481.49,1653.26,599.77,619.85,56.94,0000 0000 0000 0000 000000
2016-03-29 07:02:44,0.25,10.76,0.00,13.90,19.29,23.30,15.30,50.45,1024.91,2061.07,1156.54,1480.44,1652.09,600.23,620.11,56.99,0000 0000 0000 0000 000000
2016-03-29 07:07:46,0.22,10.77,0.00,13.91,19.32,23.30,15.28,50.40,1024.91,2061.01,1155.41,1479.45,1650.96,599.85,619.69,57.04,0000 0000 0000 0000 000000
2016-03-29 07:12:47,0.24,10.78,0.00,13.92,19.33,23.27,15.24,50.34,1024.91,2061.00,1154.15,1478.44,1649.82,599.88,619.77,57.09,0000 0000 0000 0000 000000
2016-03-29 07:17:48,0.25,10.79,0.00,13.97,19.34,23.31,15.20,50.16,1024.92,2061.00,1152.92,1477.48,1648.75,600.08,619.94,57.14,0000 0000 0000 0000 000000
2016-03-29 07:22:49,0.25,10.80,0.00,14.02,19.36,23.41,15.29,50.33,1024.92,2061.00,1151.70,1476.56,1647.77,599.86,619.68,57.20,0000 0000 0000 0000 000000
2016-03-29 07:27:51,0.20,10.82,0.00,13.97,19.37,23.39,15.25,50.17,1024.92,2061.00,1150.70,1475.70,1646.72,599.96,619.78,57.25,0000 0000 0000 0000 000000
2016-03-29 07:32:52,0.20,10.83,0.00,14.01,19.39,23.39,15.29,50.33,1024.92,2060.99,1149.70,1474.82,1645.75,600.24,619.86,57.30,0000 0000 0000 0000 000000
2016-03-29 07:37:54,0.20,10.84,0.00,14.07,19.40,23.40,15.29,50.27,1024.92,2060.98,1148.57,1473.98,1644.82,600.06,619.55,57.35,0000 0000 0000 0000 000000
2016-03-29 07:42:55,0.20,10.85,0.00,14.07,19.42,23.38,15.15,50.17,1024.91,2060.97,1147.67,1473.10,1643.84,599.57,619.07,57.40,0000 0000 0000 0000 000000
2016-03-29 07:47:56,0.21,10.86,0.00,14.02,19.42,23.46,15.26,50.30,1024.92,2060.96,1146.60,1472.25,1642.90,599.73,619.48,57.45,0000 0000 0000 0000 000000
2016-03-29 07:52:57,0.22,10.87,0.00,14.06,19.44,23.44,15.25,50.33,1024.92,2060.95,1145.51,1471.50,1642.00,599.96,619.54,57.50,0000 0000 0000 0000 000000
2016-03-29 07:57:58,0.12,10.88,0.00,14.10,19.44,23.48,15.28,50.16,1024.92,2060.97,1144.58,1471.00,1641.17,599.84,619.39,57.55,0000 0000 0000 0000 000000
2016-03-29 08:03:00,0.14,10.89,0.00,14.07,19.44,23.44,15.25,50.15,1024.91,2060.97,1144.01,1470.34,1640.72,600.02,619.65,57.60,0000 0000 0000 0000 000000
2016-03-29 08:08:01,0.16,10.89,0.00,14.05,19.45,23.49,15.23,50.20,1024.92,2060.95,1143.21,1469.75,1639.88,599.81,619.52,57.65,0000 0000 0000 0000 000000
2016-03-29 08:13:02,0.17,10.91,0.00,14.16,19.46,23.49,15.23,50.13,1024.91,2060.94,1142.13,1469.03,1639.06,600.14,619.64,57.70,0000 0000 0000 0000 000000
2016-03-29 08:18:04,0.16,10.91,0.00,14.22,19.47,23.62,15.30,50.15,1024.84,2060.95,1141.60,1468.57,1638.61,600.22,619.41,57.75,0000 0000 0000 0000 000000
2016-03-29 08:23:05,0.06,10.92,0.00,14.19,19.47,23.67,15.23,50.22,1024.81,2060.87,1140.94,1468.01,1638.00,599.98,619.33,57.80,0000 0000 0000 0000 000000
2016-03-29 08:28:06,0.18,10.92,0.00,14.19,19.48,23.74,15.29,50.32,1024.84,2060.78,1140.12,1467.44,1637.24,599.97,619.30,57.85,0000 0000 0000 0000 000000
2016-03-29 08:33:07,0.05,10.93,0.00,14.35,19.49,23.74,15.30,50.17,1024.89,2060.45,1139.57,1466.97,1636.85,599.90,618.90,57.90,0000 0000 0000 0000 000000
2016-03-29 08:38:09,0.09,10.93,0.00,14.44,19.49,23.66,15.27,50.09,1024.88,2060.18,1138.94,1466.28,1636.05,600.50,619.30,57.95,0000 0000 0000 0000 000000
2016-03-29 08:43:10,0.13,10.94,0.00,14.43,19.52,23.58,15.19,50.03,1024.77,2060.11,1138.10,1465.92,1635.51,599.83,618.53,58.00,0000 0000 0000 0000 000000
2016-03-29 08:48:11,0.12,10.94,0.00,14.49,19.54,23.59,15.27,49.90,1024.72,2060.04,1137.71,1465.13,1634.92,600.17,618.60,58.05,0000 0000 0000 0000 000000
2016-03-29 08:53:13,0.11,10.95,0.00,14.58,19.57,23.61,15.22,49.86,1024.68,2060.01,1136.99,1464.82,1634.12,600.03,618.29,58.10,0000 0000 0000 0000 000000
2016-03-29 08:58:14,0.17,10.96,0.00,14.65,19.59,23.62,15.26,50.13,1024.78,2060.00,1136.19,1464.05,1633.69,599.88,618.05,58.16,0000 0000 0000 0000 000000
2016-03-29 09:03:15,0.13,10.96,0.00,14.62,19.61,23.71,15.18,49.83,1024.82,2060.00,1135.65,1463.69,1633.02,599.91,618.16,58.21,0000 0000 0000 0000 000000
2016-03-29 09:08:16,0.11,10.97,0.00,14.57,19.64,23.92,15.16,49.81,1024.83,2059.99,1134.99,1463.00,1632.33,599.77,618.32,58.26,0000 0000 0000 0000 000000
2016-03-29 09:13:18,0.17,10.98,0.00,14.60,19.65,23.98,15.21,49.72,1024.78,2059.99,1134.20,1462.41,1631.94,600.03,618.30,58.31,0000 0000 0000 0000 000000
2016-03-29 09:18:19,0.10,10.99,0.00,14.56,19.67,24.05,15.29,49.88,1024.72,2059.98,1133.71,1461.99,1631.15,599.75,618.21,58.36,0000 0000 0000 0000 000000
2016-03-29 09:23:20,0.14,10.99,0.00,14.45,19.69,24.07,15.24,49.90,1024.64,2059.95,1133.02,1461.43,1630.69,600.15,618.75,58.41,0000 0000 0000 0000 000000
2016-03-29 09:28:22,0.10,11.00,0.00,14.41,19.69,23.98,15.21,49.86,1024.52,2059.89,1132.44,1461.00,1630.02,599.77,618.37,58.46,0000 0000 0000 0000 000000
2016-03-29 09:33:23,0.14,11.00,0.00,14.42,19.69,23.97,15.24,49.63,1024.51,2059.79,1131.84,1460.38,1629.44,600.08,618.78,58.51,0000 0000 0000 0000 000000
2016-03-29 09:38:24,0.11,11.01,0.00,14.32,19.69,23.80,15.23,49.75,1024.53,2059.92,1131.05,1460.00,1629.00,600.00,618.84,58.56,0000 0000 0000 0000 000000
2016-03-29 09:43:26,0.15,11.02,0.00,14.24,19.67,23.85,15.30,49.83,1024.52,2059.88,1130.60,1459.54,1628.46,600.24,619.23,58.61,0000 0000 0000 0000 000000
2016-03-29 09:48:27,0.07,11.03,0.00,14.26,19.66,23.81,15.25,49.70,1024.51,2059.95,1129.99,1459.01,1628.00,600.02,619.07,58.66,0000 0000 0000 0000 000000
2016-03-29 09:53:28,0.13,11.03,0.00,14.27,19.64,23.60,15.25,49.62,1024.53,2059.97,1129.30,1458.85,1627.51,600.12,618.93,58.71,0000 0000 0000 0000 000000
2016-03-29 09:58:29,0.09,11.04,0.00,14.19,19.62,23.63,15.24,49.62,1024.49,2059.97,1129.01,1458.10,1627.02,600.00,619.07,58.76,0000 0000 0000 0000 000000
2016-03-29 10:03:31,0.11,11.04,0.00,14.10,19.60,23.69,15.26,49.65,1024.46,2059.97,1128.51,1457.96,1626.60,599.78,619.01,58.81,0000 0000 0000 0000 000000
2016-03-29 10:08:32,0.10,11.05,0.00,14.13,19.58,23.71,15.27,49.68,1024.47,2059.99,1128.00,1457.24,1626.01,600.07,619.27,58.86,0000 0000 0000 0000 000000
2016-03-29 10:13:33,0.13,11.05,0.00,14.16,19.56,23.66,15.22,49.66,1024.47,2059.99,1127.28,1456.99,1625.54,599.89,618.92,58.91,0000 0000 0000 0000 000000
2016-03-29 10:18:35,0.10,11.06,0.00,14.11,19.54,23.54,15.23,49.70,1024.50,2059.99,1126.88,1456.40,1624.99,599.98,619.27,58.96,0000 0000 0000 0000 000000
2016-03-29 10:23:36,0.14,11.07,0.00,14.10,19.52,23.57,15.25,49.65,1024.50,2060.00,1126.06,1456.00,1624.36,599.88,619.12,59.01,0000 0000 0000 0000 000000
2016-03-29 10:28:37,0.14,11.07,0.00,14.15,19.50,23.64,15.19,49.71,1024.47,2060.00,1125.61,1455.52,1623.97,599.71,618.83,59.07,0000 0000 0000 0000 000000
2016-03-29 10:33:38,0.09,11.08,0.00,14.13,19.47,23.57,15.34,49.61,1024.45,2060.01,1125.01,1455.01,1623.24,600.17,619.36,59.12,0000 0000 0000 0000 000000
2016-03-29 10:38:40,0.17,11.08,0.00,14.09,19.45,23.57,15.35,49.69,1024.44,2060.01,1124.38,1454.49,1622.79,600.06,619.32,59.17,0000 0000 0000 0000 000000
2016-03-29 10:43:41,0.08,11.09,0.00,14.09,19.43,23.54,15.27,49.67,1024.43,2060.02,1123.85,1453.93,1622.02,599.99,619.23,59.22,0000 0000 0000 0000 000000
2016-03-29 10:48:42,0.23,11.10,0.00,14.11,19.41,23.49,15.22,49.61,1024.43,2060.06,1122.84,1453.08,1621.15,599.67,618.78,59.27,0000 0000 0000 0000 000000
2016-03-29 10:53:44,0.31,11.12,0.00,14.02,19.38,23.48,15.26,49.71,1024.43,2060.18,1121.53,1452.12,1620.05,600.08,619.45,59.32,0000 0000 0000 0000 000000
2016-03-29 10:58:45,0.38,11.13,0.00,13.93,19.35,23.44,15.25,49.61,1024.43,2060.41,1119.98,1450.88,1618.78,600.16,619.81,59.37,0000 0000 0000 0000 000000
2016-03-29 11:03:46,0.39,11.15,0.00,13.97,19.32,23.45,15.25,49.53,1024.43,2060.61,1118.12,1449.62,1617.43,600.08,619.66,59.42,0000 0000 0000 0000 000000
2016-03-29 11:08:48,0.25,11.17,0.00,13.97,19.29,23.41,15.30,49.73,1024.43,2060.93,1116.86,1448.78,1616.38,599.90,619.41,59.47,0000 0000 0000 0000 000000
2016-03-29 11:13:49,0.12,11.18,0.00,13.95,19.27,23.31,15.28,49.65,1024.43,2060.97,1116.09,1448.05,1615.97,600.22,619.69,59.52,0000 0000 0000 0000 000000
2016-03-29 11:18:50,0.14,11.18,0.00,13.96,19.24,23.38,15.17,49.52,1024.43,2060.98,1115.54,1447.83,1615.15,600.05,619.57,59.57,0000 0000 0000 0000 000000
2016-03-29 11:23:52,0.10,11.19,0.00,13.91,19.22,23.34,15.27,49.72,1024.43,2060.99,1114.93,1447.07,1614.83,599.70,619.41,59.62,0000 0000 0000 0000 000000
2016-03-29 11:28:53,0.14,11.20,0.00,13.85,19.19,23.29,15.26,49.63,1024.43,2060.99,1114.18,1446.81,1614.04,600.19,620.09,59.67,0000 0000 0000 0000 000000
2016-03-29 11:33:54,0.18,11.21,0.00,13.81,19.17,23.30,15.28,49.66,1024.42,2060.99,1113.55,1446.05,1613.43,599.95,619.72,59.72,0000 0000 0000 0000 000000
2016-03-29 11:38:55,0.21,11.21,0.00,13.84,19.14,23.29,15.24,49.67,1024.39,2061.00,1112.65,1445.30,1612.64,600.20,619.94,59.77,0000 0000 0000 0000 000000
2016-03-29 11:43:56,0.18,11.22,0.00,13.79,19.12,23.24,15.20,49.67,1024.21,2061.03,1111.66,1444.64,1611.85,599.87,619.77,59.82,0000 0000 0000 0000 000000
2016-03-29 11:48:58,0.20,11.24,0.00,13.68,19.09,23.19,15.34,49.63,1024.05,2061.19,1110.66,1443.91,1611.00,599.96,619.85,59.87,0000 0000 0000 0000 000000
2016-03-29 11:53:59,0.27,11.25,0.00,13.61,19.06,23.24,15.24,49.77,1023.99,2061.48,1109.63,1443.07,1610.10,599.73,619.71,59.93,0000 0000 0000 0000 000000
2016-03-29 11:59:00,0.25,9.01,0.00,13.61,19.04,23.13,13.46,43.63,1023.95,2062.93,1609.89,1796.03,2015.88,534.61,551.14,0.00,0000 0000 0000 0000 000002
2016-03-29 12:04:01,0.20,0.00,0.00,13.60,19.01,23.10,15.25,49.15,1023.95,2067.14,3608.24,3208.37,3640.00,600.23,620.18,0.02,0000 0000 0000 0000 000000
2016-03-29 12:09:03,0.22,0.01,0.00,13.50,18.96,23.10,15.23,49.08,1023.94,2067.60,3600.37,3203.23,3634.37,599.82,620.10,0.07,0000 0000 0000 0000 000000
2016-03-29 12:14:04,0.24,0.03,0.00,13.46,18.92,23.08,15.24,48.88,1023.94,2067.87,3594.04,3198.88,3629.23,599.87,620.15,0.12,0000 0000 0000 0000 000000
2016-03-29 12:19:05,0.27,0.04,0.00,13.45,18.88,23.05,15.25,48.71,1023.94,2067.94,3586.91,3194.20,3623.81,600.05,620.38,0.17,0000 0000 0000 0000 000000
2016-03-29 12:24:07,0.28,0.06,0.00,13.40,18.84,22.96,15.26,48.92,1023.94,2067.97,3580.63,3189.94,3619.14,599.97,620.49,0.22,0000 0000 0000 0000 000000
2016-03-29 12:29:08,0.26,0.07,0.00,13.35,18.80,22.95,15.32,48.85,1023.94,2067.99,3574.83,3186.12,3614.93,600.54,621.12,0.27,0000 0000 0000 0000 000000
2016-03-29 12:34:09,0.24,0.08,0.00,13.35,18.77,22.97,15.30,48.78,1023.94,2067.99,3569.10,3182.37,3610.69,600.03,620.59,0.32,0000 0000 0000 0000 000000
2016-03-29 12:39:10,0.22,0.09,0.00,13.31,18.73,22.83,15.22,48.67,1023.94,2068.01,3563.66,3178.86,3606.78,599.62,620.17,0.37,0000 0000 0000 0000 000000
2016-03-29 12:44:11,0.23,0.10,0.00,13.29,18.69,22.85,15.21,48.68,1023.94,2068.09,3558.45,3175.48,3602.97,600.05,620.46,0.42,0000 0000 0000 0000 000000
2016-03-29 12:49:12,0.25,0.12,0.00,13.20,18.65,22.88,15.23,48.68,1023.94,2068.54,3553.54,3172.20,3599.26,600.27,621.04,0.47,0000 0000 0000 0000 000000